Regional Weather Roundup
Issued by NWS

Home | Current Version | Previous Version | Graphics & Text | Print | Product List | Glossary On
Versions: 1 2 3 4 5 6 7 8 9 10 11 12 13 14 15 16 17 18 19 20 21 22 23 24 25 26 27 28 29 30 31 32 33 34 35 36 37 38 39 40 41 42 43 44 45 46 47 48 49 50
000
ASUS43 KLMK 221610
RWRKY
KENTUCKY REGIONAL WEATHER ROUNDUP
NATIONAL WEATHER SERVICE LOUISVILLE KY
1200 PM EDT FRI SEP 22 2017

NOTE "FAIR" INDICATES FEW OR NO CLOUDS BELOW 12,000 FEET
WITH NO SIGNIFICANT WEATHER AND/OR OBSTRUCTIONS TO VISIBILITY.

KYZ001>023-026-027-061>063-070>075-221700-
WESTERN AND SOUTH CENTRAL KENTUCKY

CITY           SKY/WX    TMP DP  RH WIND       PRES   REMARKS
PADUCAH        SUNNY     87  70  56 VRB3      30.07S HX  92
HENDERSON      SUNNY     87  69  54 CALM      30.09S HX  91
OWENSBORO      SUNNY     88  70  55 SE7       30.09F HX  93
HOPKINSVILLE   NOT AVBL
BOWLING GREEN  SUNNY     84  71  65 NE8       30.10S
GLASGOW        SUNNY     85  68  57 E5        30.11S
$$

KYZ024-025-028>034-038-045-046-053-221700-
NORTH CENTRAL KENTUCKY

CITY           SKY/WX    TMP DP  RH WIND       PRES   REMARKS
LOUISVILLE/SDF MOSUNNY   86  68  54 VRB5      30.11S
LOUISVILLE/LOU SUNNY     85  69  58 E6        30.11F
FORT KNOX      SUNNY     82  68  61 E6        30.10F
$$

KYZ035>037-039>044-047>052-055>060-089>105-221700-
NORTHEAST KENTUCKY

CITY           SKY/WX    TMP DP  RH WIND       PRES   REMARKS
LEXINGTON      SUNNY     83  68  60 E5        30.14S
COVINGTON      MOSUNNY   85  69  58 CALM      30.13F
FRANKFORT      SUNNY     85  67  54 VRB5      30.12S
$$

KYZ054-064>069-076>088-106>120-221700-
SOUTHEAST KENTUCKY

CITY           SKY/WX    TMP DP  RH WIND       PRES   REMARKS
JACKSON        SUNNY     80  68  66 CALM      30.15S
LONDON         SUNNY     81  66  60 SE6       30.13F
SOMERSET       SUNNY     79  66  65 CALM      30.13F
MIDDLESBORO    SUNNY     76  67  74 CALM      30.14F
MONTICELLO     SUNNY     82  70  66 NW6       30.14F
$$





USA.gov is the U.S. government's official web portal to all federal, state and local government web resources and services.